Location: Brunembert
(50.7122°N, 1.8935°E)
Time: 01:05:23
(UTC+00:00)

Cosmos 1500 Rocket - Pass Details

Date: 29 July 2021
Orbit: 602 x 632 km, 82.5° (Epoch: 18 September)

Event Time Altitude Azimuth Distance (km) Brightness Sun altitude
Exits shadow 22:59:39 27° 223° (SW) 1,213 4.7 -19.6°
Maximum altitude 23:01:48 49° 285° (WNW) 806 4.3 -19.6°
Drops below altitude 10° 23:06:08 10° 1° (N) 2,015 7.3 -19.8°
Sets 23:08:27 0° 7° (N) 2,931 8.3 -19.9°
